Wind_Speed
23 23 24 23 23 23 24 25 24 24 24 25 25 24 23 25 25 24 24 23 21 19 18 18 18 15 14 11 27 12 5 1 20 33 35 31 31 12 7 6 10 8 8 13 23 10 16
25 24 25 24 24 24 25 26 26 26 27 27 25 25 25 26 26 26 26 26 26 22 19 18 18 16 15 8 13 8 19 13 16 34 30 34 22 24 3 4 8 6 18 22 14 13 10
24 22 22 23 25 25 26 27 26 26 28 29 28 28 29 28 29 28 27 27 26 23 21 19 17 17 20 30 9 7 13 24 13 30 32 32 15 22 9 4 12 15 7 6 10 11 9
22 24 24 25 26 26 26 27 27 29 31 31 31 30 31 32 32 32 28 28 21 21 20 17 14 17 14 9 22 31 11 19 25 20 27 28 27 16 5 3 5 2 1 2 2 8 7
24 24 24 25 26 26 27 28 29 30 31 32 32 33 33 32 33 35 23 22 16 15 13 9 8 12 10 11 21 23 33 21 23 19 21 14 24 11 6 3 4 3 5 6 4 10 3
24 25 26 26 27 27 28 29 31 31 31 32 33 34 34 34 34 24 25 16 8 7 3 3 5 4 15 6 3 11 22 32 23 24 15 15 9 4 3 5 11 5 4 4 4 3 6
25 25 26 27 28 28 29 30 31 32 32 33 33 35 34 33 32 21 23 7 7 2 6 11 4 7 3 9 7 7 13 27 18 20 8 10 5 13 10 6 5 6 4 3 3 2 4
25 26 26 27 28 28 29 30 32 33 34 34 34 35 36 31 31 18 11 11 12 12 16 21 30 40 29 6 3 14 15 19 13 7 9 4 20 10 9 9 8 6 6 7 4 7 2
25 26 26 27 28 29 30 31 32 33 34 34 34 34 36 32 22 19 5 14 18 20 6 15 20 20 26 31 20 22 22 16 6 9 17 18 6 11 12 7 9 6 11 5 4 2 1
25 26 27 28 29 30 30 31 32 33 34 35 35 34 35 37 12 27 4 14 19 12 3 7 5 5 12 11 8 35 29 20 5 21 8 8 6 13 8 12 10 8 8 7 7 4 4
26 27 28 29 30 30 31 32 33 34 35 35 34 33 33 34 31 24 12 17 14 2 6 1 2 7 12 10 0 13 32 17 10 9 9 10 13 15 12 9 8 10 7 8 5 6 2
27 28 29 30 30 31 32 33 33 34 35 35 34 32 37 31 23 20 23 14 1 3 9 4 4 1 4 5 3 5 18 9 10 6 1 9 6 13 11 7 9 7 4 5 5 4 5
28 29 30 30 31 31 32 32 33 34 36 36 33 32 34 14 26 22 20 6 3 5 6 5 4 5 5 4 3 4 10 13 11 7 9 5 16 3 6 7 4 5 8 2 2 3 10
29 30 31 31 30 31 32 32 32 33 34 34 33 32 21 14 23 24 8 3 5 2 4 4 5 7 3 8 4 5 9 16 5 5 6 9 6 16 5 9 9 8 9 6 8 5 6
29 30 30 30 30 30 31 30 31 32 34 34 32 29 15 21 24 19 8 1 4 3 6 10 8 4 4 5 2 4 4 2 7 2 7 8 9 3 7 5 16 6 11 9 4 1 2
27 28 28 28 28 28 28 28 29 31 33 33 34 24 19 24 24 6 4 4 5 8 14 6 4 6 5 6 5 6 5 8 10 7 4 3 2 7 16 6 8 10 8 4 2 6 6
26 27 28 28 28 28 27 26 27 29 32 30 25 12 16 23 10 6 3 5 6 16 17 4 5 6 4 4 5 4 5 6 12 9 7 6 3 2 7 10 20 3 6 3 6 6 6
26 25 26 27 27 27 26 25 26 27 29 28 13 4 17 17 8 4 3 6 11 13 19 5 5 6 4 5 4 4 4 4 15 10 4 1 2 7 6 2 5 21 11 8 6 11 4
25 25 26 27 26 27 26 24 24 24 24 25 18 6 11 14 4 4 7 6 4 9 9 8 5 4 4 4 3 5 4 5 17 9 4 6 2 2 4 5 1 4 13 7 13 3 16
24 25 25 25 25 24 23 22 22 22 20 18 9 5 7 8 6 3 6 5 6 8 4 10 6 7 6 6 5 4 6 5 11 7 7 3 1 4 3 1 3 6 5 8 16 12 18
25 25 25 24 24 24 22 21 20 19 17 13 4 2 3 4 4 5 5 4 7 7 7 4 5 9 5 3 5 3 5 5 4 7 4 4 0 2 2 12 7 11 14 12 10 22 15
25 26 26 25 24 23 22 21 19 18 16 8 4 3 3 7 9 8 3 3 3 5 4 6 1 11 12 3 3 3 6 2 4 5 4 4 2 2 4 9 10 12 13 14 14 10 10
25 25 25 25 23 22 21 19 18 17 16 5 6 9 7 4 3 2 3 4 4 12 11 12 6 11 8 8 9 16 17 16 11 4 3 3 3 2 4 6 12 15 9 15 9 8 12
25 25 26 25 24 22 21 19 17 15 15 10 12 13 6 3 3 4 8 14 13 12 10 20 17 9 5 21 21 16 18 19 16 13 13 2 1 4 4 4 7 4 9 9 14 17 17
24 24 25 25 24 24 23 21 18 15 14 15 14 10 5 5 9 12 15 13 13 14 12 14 23 15 16 8 4 6 3 2 9 18 14 15 5 3 4 6 13 19 4 5 0 8 11
23 24 25 25 26 25 24 23 20 16 13 15 15 12 12 7 6 14 8 13 5 7 6 4 13 12 5 2 0 3 4 4 4 4 13 10 12 2 1 6 7 3 1 8 4 5 6
23 24 26 27 28 28 28 28 24 19 16 16 17 14 11 10 19 16 7 6 4 5 3 8 6 8 1 1 3 4 5 3 4 3 4 6 7 15 11 6 6 5 6 6 5 5 19
27 28 28 29 30 30 28 27 26 20 18 18 21 15 15 13 26 27 24 20 18 11 4 4 7 2 1 3 3 3 4 4 4 6 5 7 8 6 8 6 15 1 1 2 5 18 23
30 32 33 33 33 31 28 28 28 21 18 17 23 20 13 19 24 33 37 38 34 34 19 10 8 3 4 2 3 2 3 2 4 5 6 8 8 4 9 7 8 6 7 7 7 15 17
Wind_Direction
4 5 5 5 4 3 2 360 357 355 352 349 345 340 335 332 327 322 315 304 296 290 286 284 283 280 279 254 248 237 264 188 183 182 188 179 174 190 171 195 217 239 252 259 263 242 207
2 1 0 2 2 1 360 359 359 357 356 354 351 346 340 336 331 325 317 306 300 288 280 277 274 268 255 239 272 256 230 230 188 182 186 184 187 192 275 203 175 235 246 260 280 265 222
0 1 0 1 0 358 357 357 357 356 355 354 352 349 345 342 339 331 320 309 298 287 283 277 264 252 245 247 244 232 218 211 195 189 182 188 192 184 230 309 255 261 284 287 253 265 219
6 4 3 2 0 359 357 356 356 354 352 350 349 346 343 341 341 335 326 313 298 288 288 281 254 230 242 257 231 228 203 189 199 203 198 196 206 209 218 257 329 291 149 246 276 191 260
2 3 2 359 358 357 356 354 352 351 349 348 347 345 342 342 342 338 342 327 307 295 290 271 211 200 252 242 232 223 205 176 174 192 211 218 215 214 220 170 349 331 234 212 302 202 156
2 0 358 357 356 355 353 352 351 351 350 349 347 345 344 345 346 353 351 337 331 317 288 263 222 233 235 221 189 202 210 212 210 206 186 187 188 160 137 154 211 212 217 263 236 203 166
358 358 357 356 354 354 353 352 351 350 349 350 349 346 344 344 347 356 357 359 340 296 304 231 224 252 257 181 190 209 195 195 189 173 155 179 175 212 192 174 176 191 208 201 280 266 142
356 356 356 356 356 355 354 353 352 351 350 351 350 348 342 346 344 5 36 57 31 336 299 277 255 249 238 197 305 205 192 164 176 174 133 121 223 199 177 192 194 189 232 247 278 276 89
357 358 358 357 355 353 352 351 351 350 350 351 352 351 341 343 341 355 11 10 350 329 257 284 242 245 245 234 230 226 193 180 150 157 186 200 223 169 190 179 186 199 210 179 188 335 340
358 358 356 354 353 351 350 349 349 348 348 350 353 354 344 338 343 339 330 333 336 322 323 272 234 246 176 177 235 223 206 178 168 198 130 213 215 189 178 206 176 220 182 141 160 119 213
357 356 356 354 353 351 349 349 348 347 346 348 352 352 344 345 334 336 312 320 331 141 320 235 170 154 175 193 199 204 196 204 176 166 153 211 179 184 206 199 163 223 150 173 159 187 164
356 355 354 352 350 349 349 349 348 346 345 345 349 348 342 343 340 329 310 312 315 57 249 326 87 63 119 238 296 93 180 199 174 129 296 198 199 191 200 175 173 156 108 62 52 112 234
353 352 350 349 348 347 347 347 347 346 346 345 347 342 347 6 1 339 322 321 72 191 331 0 340 9 350 314 229 141 193 189 173 144 188 177 220 198 154 169 166 137 107 286 283 189 241
351 350 349 347 346 346 346 347 346 344 345 344 344 342 353 16 350 353 340 68 216 236 300 340 339 314 106 353 4 328 160 193 239 121 152 174 220 204 193 187 181 183 146 163 207 210 224
351 350 348 346 344 345 345 344 344 342 344 343 343 347 21 355 348 346 350 180 220 348 359 333 310 48 347 350 17 354 5 245 205 172 171 177 238 256 185 156 166 189 198 171 80 301 29
349 348 347 347 346 345 343 343 342 339 342 344 343 348 5 350 339 336 64 280 299 15 350 333 326 32 16 325 29 31 28 337 338 12 7 248 233 208 203 127 194 159 162 127 23 194 246
347 347 347 347 345 343 343 342 340 339 342 345 346 340 355 348 7 45 74 291 296 350 351 327 348 326 350 9 7 4 358 47 4 340 30 1 131 308 116 199 197 144 182 100 150 161 191
348 348 349 348 346 343 342 337 338 338 342 346 352 338 357 4 50 27 338 314 312 343 347 326 343 34 357 356 350 12 56 46 9 332 14 348 94 222 201 216 243 213 196 153 173 223 241
352 353 352 350 346 344 342 336 336 339 344 347 336 302 14 25 59 341 319 296 348 344 336 355 325 5 346 352 12 23 21 65 15 12 30 332 3 51 54 317 247 183 229 186 217 96 217
354 353 351 350 350 349 348 342 338 338 342 346 342 344 347 46 76 23 336 298 327 337 358 341 308 37 10 7 6 5 357 24 340 14 21 50 78 110 230 235 353 307 312 204 210 225 230
352 352 351 350 351 351 349 344 342 339 341 344 349 310 341 317 339 319 322 277 310 352 342 52 327 15 1 341 339 24 3 336 325 13 35 77 287 345 245 286 258 246 257 266 247 225 221
353 353 353 351 348 348 350 349 346 339 337 326 303 309 306 283 292 310 314 287 314 345 310 312 296 339 331 295 329 308 12 333 270 342 30 356 265 29 280 272 306 288 267 257 246 236 263
355 355 355 351 346 344 343 346 345 337 335 314 298 280 259 253 268 310 250 264 309 326 294 254 336 322 319 308 318 288 270 257 250 284 348 323 163 54 264 313 318 293 252 238 226 195 216
356 354 350 348 350 348 344 340 338 336 324 308 304 292 262 284 276 282 273 289 287 290 280 287 300 290 270 320 311 289 255 240 249 240 202 208 240 165 245 335 249 260 295 269 251 223 211
352 350 348 346 347 347 344 340 331 327 316 301 305 288 271 278 269 284 272 286 295 308 282 260 278 271 315 306 331 332 324 260 237 234 217 205 192 250 202 211 294 307 334 34 355 283 236
346 345 344 343 344 341 339 333 331 327 315 301 299 293 265 281 236 260 294 294 289 290 298 278 313 329 334 81 72 239 240 255 281 267 224 192 211 247 162 213 223 221 218 295 173 255 304
340 339 338 338 336 333 329 326 326 316 308 299 298 296 265 256 270 259 247 270 221 281 265 286 319 327 275 203 238 234 249 240 245 244 156 166 191 218 235 260 280 251 294 339 203 289 322
334 333 333 333 331 327 325 323 319 313 301 291 288 288 270 263 274 263 260 250 256 249 237 284 323 230 239 224 240 228 232 239 264 225 188 175 178 189 214 236 244 317 59 176 324 310 307
330 330 331 330 330 325 321 322 319 307 294 285 283 290 274 260 266 280 278 270 253 249 241 224 224 246 242 234 257 271 269 261 246 260 221 227 215 199 198 214 221 181 234 260 311 316 306
Height
1548 1545 1542 1539 1536 1532 1529 1525 1522 1518 1514 1510 1506 1502 1498 1494 1490 1486 1482 1479 1477 1475 1474 1473 1473 1474 1473 1472 1460 1463 1464 1463 1464 1469 1473 1479 1485 1488 1491 1490 1492 1493 1486 1486 1481 1487 1487
1548 1545 1542 1539 1536 1532 1529 1525 1521 1517 1512 1508 1504 1500 1495 1491 1487 1482 1478 1474 1470 1468 1468 1468 1468 1469 1469 1468 1458 1458 1460 1463 1463 1467 1473 1477 1480 1485 1487 1488 1489 1484 1482 1480 1479 1479 1483
1549 1545 1542 1538 1535 1531 1528 1524 1520 1516 1511 1507 1502 1497 1492 1487 1482 1477 1472 1468 1464 1461 1461 1461 1462 1462 1461 1451 1454 1455 1456 1460 1463 1465 1470 1476 1480 1483 1483 1486 1484 1482 1485 1479 1477 1474 1478
1549 1545 1542 1538 1535 1531 1527 1523 1519 1514 1510 1505 1500 1495 1489 1484 1479 1472 1466 1460 1457 1455 1454 1454 1455 1457 1451 1445 1445 1449 1452 1456 1462 1467 1471 1475 1479 1481 1482 1483 1482 1482 1483 1491 1473 1473 1471
1549 1545 1542 1538 1534 1530 1526 1522 1517 1512 1507 1502 1497 1491 1486 1481 1475 1468 1462 1455 1452 1450 1449 1449 1451 1452 1444 1438 1438 1442 1450 1452 1458 1465 1470 1475 1478 1479 1481 1487 1495 1491 1498 1491 1481 1470 1471
1548 1545 1541 1537 1533 1529 1524 1520 1515 1510 1506 1500 1495 1488 1483 1477 1471 1465 1459 1454 1451 1449 1448 1448 1448 1454 1437 1434 1434 1437 1442 1449 1456 1460 1468 1472 1474 1477 1480 1487 1497 1496 1494 1485 1482 1470 1471
1548 1544 1540 1536 1532 1527 1523 1518 1513 1508 1504 1498 1493 1486 1481 1475 1470 1465 1458 1454 1455 1452 1448 1442 1439 1433 1429 1431 1432 1434 1437 1443 1451 1456 1462 1464 1475 1473 1474 1475 1476 1480 1482 1481 1474 1465 1470
1548 1544 1540 1536 1531 1526 1522 1517 1512 1507 1502 1497 1491 1485 1477 1474 1468 1466 1462 1460 1466 1467 1448 1433 1428 1427 1426 1427 1430 1431 1433 1439 1444 1450 1453 1467 1461 1462 1466 1471 1473 1476 1482 1484 1476 1467 1468
1547 1543 1539 1535 1531 1526 1521 1516 1511 1506 1500 1495 1490 1484 1476 1471 1466 1465 1463 1463 1464 1461 1455 1420 1414 1413 1415 1421 1423 1421 1427 1429 1433 1444 1446 1452 1452 1455 1461 1467 1474 1475 1479 1480 1479 1470 1469
1548 1544 1539 1535 1530 1525 1520 1515 1510 1505 1499 1494 1488 1483 1475 1467 1467 1463 1463 1462 1461 1457 1458 1422 1410 1407 1410 1412 1415 1412 1418 1423 1428 1434 1444 1451 1446 1450 1457 1460 1463 1482 1465 1468 1474 1482 1497
1547 1543 1538 1534 1529 1524 1519 1514 1508 1502 1497 1492 1487 1481 1475 1470 1466 1464 1462 1460 1458 1458 1467 1407 1406 1406 1406 1408 1406 1405 1411 1418 1421 1425 1435 1440 1441 1447 1453 1449 1455 1461 1458 1466 1470 1480 1483
1546 1542 1537 1532 1528 1523 1517 1512 1507 1501 1495 1490 1485 1480 1472 1468 1464 1461 1456 1456 1456 1464 1460 1409 1404 1406 1409 1406 1403 1404 1409 1414 1417 1423 1425 1430 1428 1433 1437 1442 1446 1451 1458 1470 1477 1486 1500
1546 1541 1537 1532 1527 1522 1517 1511 1506 1499 1493 1488 1482 1476 1471 1467 1464 1459 1454 1454 1464 1464 1418 1417 1415 1412 1412 1408 1403 1404 1409 1410 1414 1436 1438 1430 1428 1425 1427 1443 1444 1450 1471 1503 1502 1503 1478
1545 1540 1536 1531 1526 1521 1516 1510 1504 1499 1493 1486 1480 1474 1468 1467 1464 1459 1454 1457 1461 1432 1429 1422 1418 1414 1414 1413 1410 1408 1408 1411 1408 1411 1429 1439 1448 1423 1420 1426 1441 1452 1464 1494 1503 1499 1476
1543 1539 1534 1529 1524 1519 1514 1509 1504 1498 1492 1486 1478 1472 1470 1467 1464 1461 1459 1463 1448 1442 1436 1432 1421 1420 1422 1418 1415 1412 1415 1411 1406 1407 1422 1436 1431 1408 1412 1415 1424 1448 1454 1449 1476 1476 1484
1543 1538 1533 1529 1523 1518 1513 1508 1503 1497 1492 1486 1478 1471 1469 1466 1462 1460 1463 1464 1453 1446 1443 1436 1435 1429 1432 1427 1422 1422 1419 1429 1421 1413 1413 1412 1428 1408 1405 1411 1417 1426 1433 1462 1480 1482 1488
1542 1537 1532 1527 1523 1518 1513 1508 1503 1497 1492 1486 1479 1473 1471 1466 1461 1461 1472 1470 1458 1451 1448 1445 1441 1439 1433 1432 1429 1427 1426 1431 1425 1420 1417 1422 1418 1413 1408 1412 1412 1427 1433 1442 1446 1467 1475
1541 1536 1531 1527 1522 1517 1513 1507 1503 1497 1492 1486 1481 1480 1472 1467 1468 1472 1476 1471 1464 1455 1453 1447 1443 1442 1439 1434 1431 1429 1431 1434 1432 1427 1430 1428 1434 1425 1414 1400 1399 1400 1412 1429 1444 1456 1460
1540 1535 1530 1526 1522 1517 1512 1507 1503 1498 1493 1488 1484 1480 1475 1471 1482 1482 1475 1469 1464 1462 1458 1453 1448 1445 1442 1440 1440 1436 1436 1436 1434 1431 1435 1433 1438 1436 1422 1412 1401 1409 1406 1412 1412 1432 1434
1539 1534 1529 1524 1519 1514 1510 1506 1502 1498 1495 1492 1488 1486 1479 1478 1482 1483 1480 1474 1466 1462 1460 1460 1455 1449 1448 1447 1444 1444 1440 1437 1436 1435 1434 1432 1442 1443 1441 1433 1434 1425 1411 1407 1411 1421 1416
1537 1532 1527 1522 1518 1514 1509 1505 1501 1498 1496 1495 1493 1491 1490 1487 1483 1483 1480 1477 1470 1467 1461 1461 1459 1457 1459 1453 1450 1447 1444 1442 1438 1438 1436 1439 1443 1440 1436 1429 1424 1419 1415 1411 1413 1404 1409
1535 1530 1525 1521 1517 1513 1509 1505 1502 1498 1496 1495 1495 1493 1490 1487 1483 1481 1477 1476 1472 1468 1468 1461 1460 1461 1456 1458 1453 1454 1454 1449 1446 1441 1441 1443 1444 1443 1438 1424 1415 1417 1409 1404 1402 1403 1402
1534 1529 1523 1519 1514 1510 1507 1504 1500 1497 1495 1494 1493 1491 1489 1484 1482 1482 1478 1474 1471 1471 1463 1460 1461 1461 1457 1454 1454 1452 1450 1448 1447 1447 1447 1448 1445 1444 1441 1429 1421 1406 1391 1390 1390 1387 1390
1533 1528 1523 1518 1513 1509 1506 1502 1499 1496 1493 1492 1491 1489 1486 1480 1481 1478 1475 1472 1470 1469 1468 1461 1461 1460 1455 1452 1448 1444 1442 1442 1441 1441 1442 1447 1447 1444 1443 1434 1427 1389 1378 1374 1371 1367 1369
1531 1526 1522 1517 1512 1508 1503 1500 1496 1494 1491 1488 1487 1487 1484 1479 1476 1473 1470 1466 1466 1465 1463 1460 1455 1455 1453 1451 1449 1446 1442 1438 1434 1430 1433 1437 1444 1441 1436 1433 1397 1387 1378 1382 1388 1372 1357
1529 1524 1520 1515 1510 1505 1501 1497 1494 1491 1488 1485 1483 1482 1481 1476 1469 1468 1467 1467 1465 1464 1461 1456 1453 1451 1450 1451 1453 1450 1446 1436 1429 1421 1419 1431 1435 1438 1434 1422 1409 1376 1376 1374 1376 1381 1353
1526 1522 1517 1512 1507 1502 1498 1494 1490 1486 1484 1481 1478 1477 1475 1470 1462 1464 1463 1463 1462 1461 1461 1457 1454 1451 1449 1451 1450 1452 1446 1432 1433 1422 1432 1432 1434 1432 1427 1416 1391 1372 1370 1365 1376 1366 1356
1524 1519 1514 1508 1502 1497 1492 1487 1483 1480 1478 1476 1472 1472 1471 1465 1456 1455 1456 1456 1457 1458 1457 1454 1454 1450 1449 1447 1445 1439 1442 1432 1427 1418 1416 1423 1424 1423 1425 1412 1398 1370 1367 1371 1364 1357 1357
1520 1515 1509 1503 1497 1490 1485 1480 1476 1473 1471 1470 1467 1468 1466 1462 1451 1448 1445 1443 1444 1446 1450 1450 1448 1447 1445 1446 1445 1441 1437 1432 1427 1418 1406 1414 1402 1402 1400 1384 1368 1364 1365 1361 1361 1359 1352